Location: Observatory Park - Geauga Park District
(41.5832°N, 81.0716°W)
Time: 07:43:55
(UTC-04:00)

Envisat - Pass Details

Date: 30 September 2021
Orbit: 764 x 766 km, 98.2° (Epoch: 20 October)

Event Time Altitude Azimuth Distance (km) Brightness Sun altitude
Rises 05:13:41 0° 33° (NNE) 3,235 7.0 -24.2°
Reaches altitude 10° 05:17:08 10° 57° (ENE) 2,303 6.5 -23.6°
Maximum altitude 05:19:49 14° 90° (E) 2,009 6.1 -23.1°
Drops below altitude 10° 05:22:31 10° 122° (ESE) 2,294 6.0 -22.6°
Sets 05:25:55 0° 147° (SSE) 3,213 6.4 -22.0°
